DAL58 KATL-KDTW

Flight info

Callsign DAL58
Flight time N/A
Altitude 35000
Route PADGT2 SMTTH Q67 HNN SUBWY CRAKN2
Aircraft A359/H-SDE2E3GHIJ3J4J5LM1ORWXY/LB1D1

Departure

Time 2026-05-07 01:22
Airport Hartsfield Jackson Atlanta International Airport (KATL)

Arrival

Time N/A
Airport Detroit Metropolitan Wayne County Airport (KDTW)
Time Latitude Longitude Altitude Speed Heading
2026-05-07 00:48 33.64349 -84.42641 1006 ft 0 kts 90°
2026-05-07 01:10 33.64349 -84.42647 1007 ft 2 kts 87°
2026-05-07 01:10 33.64347 -84.42664 1007 ft 2 kts 73°
2026-05-07 01:10 33.64342 -84.42681 1008 ft 2 kts 62°
2026-05-07 01:11 33.64334 -84.42696 1008 ft 2 kts 51°
2026-05-07 01:11 33.64323 -84.42709 1008 ft 2 kts 40°
2026-05-07 01:11 33.64311 -84.42720 1008 ft 2 kts 29°
2026-05-07 01:11 33.64298 -84.42727 1008 ft 2 kts 18°
2026-05-07 01:12 33.64283 -84.42731 1008 ft 2 kts
2026-05-07 01:12 33.64269 -84.42733 1008 ft 2 kts
2026-05-07 01:12 33.64254 -84.42735 1008 ft 2 kts
2026-05-07 01:12 33.64239 -84.42738 1008 ft 1 kts
2026-05-07 01:13 33.64237 -84.42738 1008 ft 0 kts
2026-05-07 01:14 33.64238 -84.42738 1008 ft 0 kts
2026-05-07 01:14 33.64256 -84.42735 1008 ft 9 kts
2026-05-07 01:15 33.64307 -84.42731 1008 ft 0 kts
2026-05-07 01:15 33.64316 -84.42731 1008 ft 4 kts 359°
2026-05-07 01:15 33.64411 -84.42732 1007 ft 15 kts
2026-05-07 01:16 33.64463 -84.42684 1005 ft 10 kts 75°
2026-05-07 01:16 33.64468 -84.42583 1002 ft 15 kts 89°
2026-05-07 01:16 33.64469 -84.42436 996 ft 20 kts 90°
2026-05-07 01:16 33.64486 -84.42249 988 ft 24 kts 71°
2026-05-07 01:17 33.64542 -84.42039 980 ft 29 kts 87°
2026-05-07 01:17 33.64543 -84.41782 976 ft 31 kts 91°
2026-05-07 01:17 33.64542 -84.41542 976 ft 28 kts 89°
2026-05-07 01:17 33.64541 -84.41311 980 ft 27 kts 91°
2026-05-07 01:18 33.64542 -84.41129 981 ft 19 kts 89°
2026-05-07 01:18 33.64544 -84.40969 983 ft 19 kts 89°
2026-05-07 01:18 33.64555 -84.40794 981 ft 21 kts 80°
2026-05-07 01:18 33.64565 -84.40662 981 ft 0 kts 87°
2026-05-07 01:20 33.64565 -84.40655 980 ft 2 kts 87°
2026-05-07 01:20 33.64573 -84.40617 980 ft 8 kts 69°
2026-05-07 01:21 33.64627 -84.40567 981 ft 11 kts
2026-05-07 01:21 33.64673 -84.40607 984 ft 7 kts 294°
2026-05-07 01:21 33.64679 -84.40665 985 ft 23 kts 271°
2026-05-07 01:21 33.64677 -84.41169 988 ft 95 kts 271°
2026-05-07 01:22 33.64679 -84.42226 988 ft 155 kts 270°
2026-05-07 01:22 33.64691 -84.43630 1328 ft 176 kts 269°
2026-05-07 01:22 33.64726 -84.45111 2015 ft 180 kts 270°
2026-05-07 01:22 33.64788 -84.46552 2861 ft 173 kts 277°
2026-05-07 01:23 33.65181 -84.47965 3367 ft 188 kts 292°
2026-05-07 01:23 33.65782 -84.49416 3837 ft 203 kts 295°
2026-05-07 01:23 33.66444 -84.50976 4302 ft 221 kts 295°
2026-05-07 01:23 33.67148 -84.52692 4865 ft 238 kts 294°
2026-05-07 01:24 33.67881 -84.54528 5453 ft 254 kts 293°
2026-05-07 01:24 33.68758 -84.56423 6081 ft 272 kts 307°
2026-05-07 01:24 33.70291 -84.57800 6938 ft 285 kts 334°
2026-05-07 01:24 33.72255 -84.58215 7901 ft 293 kts 355°
2026-05-07 01:25 33.74266 -84.58184 8834 ft 295 kts 357°
2026-05-07 01:25 33.76321 -84.58113 9723 ft 298 kts 356°
2026-05-07 01:25 33.78388 -84.58057 10610 ft 299 kts 355°
2026-05-07 01:25 33.80450 -84.57924 11476 ft 304 kts
2026-05-07 01:26 33.82550 -84.57474 12273 ft 312 kts
2026-05-07 01:26 33.84694 -84.56753 12800 ft 328 kts 11°
2026-05-07 01:26 33.86921 -84.55930 13218 ft 344 kts 11°
2026-05-07 01:26 33.89233 -84.55061 13774 ft 355 kts 12°
2026-05-07 01:27 33.91587 -84.54174 14490 ft 359 kts 11°
2026-05-07 01:27 33.93970 -84.53281 15217 ft 363 kts 11°
2026-05-07 01:27 33.96413 -84.52371 15932 ft 367 kts 11°
2026-05-07 01:27 33.98826 -84.51476 16616 ft 371 kts 11°
2026-05-07 01:28 34.01311 -84.50558 17295 ft 375 kts 11°
2026-05-07 01:28 34.03790 -84.49641 17954 ft 378 kts 11°
2026-05-07 01:28 34.06295 -84.48716 18606 ft 382 kts 11°
2026-05-07 01:28 34.08872 -84.47764 19250 ft 386 kts 11°
2026-05-07 01:29 34.11454 -84.46812 19655 ft 393 kts 11°
2026-05-07 01:29 34.14072 -84.45850 19811 ft 401 kts 11°
2026-05-07 01:29 34.16746 -84.44865 19980 ft 409 kts 11°
2026-05-07 01:29 34.19479 -84.43856 20252 ft 413 kts 11°
2026-05-07 01:30 34.22242 -84.42830 20624 ft 414 kts 11°
2026-05-07 01:30 34.24984 -84.41808 20647 ft 411 kts 11°
2026-05-07 01:30 34.27680 -84.40802 20118 ft 403 kts 10°